Time,TemperatureF,DewpointF,PressureIn,WindDirection,WindDirectionDegrees,WindSpeedMPH,WindSpeedGustMPH,Humidity,HourlyPrecipIn,Conditions,Clouds,dailyrainin,SoftwareType,DateUTC
2013-05-03 00:00:00,63.1,55.8,30.05,ESE,115,0.0,0.0,77,0.00,,---,0.00,VWS V14.00,2013-05-03 04:00:00,
2013-05-03 00:30:00,63.3,56.0,30.04,SE,124,0.0,0.0,77,0.00,,---,0.00,VWS V14.00,2013-05-03 04:30:00,
2013-05-03 01:00:00,63.3,56.0,30.03,SE,143,0.0,2.0,77,0.00,,---,0.00,VWS V14.00,2013-05-03 05:00:00,
2013-05-03 01:30:00,63.4,56.1,30.03,SE,139,0.0,2.0,77,0.00,,---,0.00,VWS V14.00,2013-05-03 05:30:00,
2013-05-03 02:00:00,62.9,57.0,30.02,NW,316,2.0,2.0,81,0.00,,---,0.00,VWS V14.00,2013-05-03 06:00:00,
2013-05-03 02:30:00,61.2,57.0,30.01,WNW,301,3.0,4.0,86,0.00,,---,0.00,VWS V14.00,2013-05-03 06:30:00,
2013-05-03 03:00:00,59.7,55.5,30.01,NW,314,1.0,3.0,86,0.00,,---,0.00,VWS V14.00,2013-05-03 07:00:00,
2013-05-03 03:30:00,59.2,55.3,30.00,NW,325,0.0,2.0,87,0.00,,---,0.00,VWS V14.00,2013-05-03 07:30:00,
2013-05-03 04:00:00,59.0,55.1,30.00,NNW,330,1.0,2.0,87,0.00,,---,0.00,VWS V14.00,2013-05-03 08:00:00,
2013-05-03 04:30:00,58.0,54.5,30.00,NNW,330,0.0,1.0,88,0.00,,---,0.00,VWS V14.00,2013-05-03 08:30:00,
2013-05-03 05:00:00,57.6,54.7,30.00,NNW,330,0.0,1.0,90,0.00,,---,0.00,VWS V14.00,2013-05-03 09:00:00,
2013-05-03 05:30:00,58.6,56.3,30.00,NNW,330,0.0,1.0,92,0.00,,---,0.00,VWS V14.00,2013-05-03 09:30:00,
2013-05-03 06:00:00,59.4,56.5,30.00,NNW,338,1.0,2.0,90,0.00,,---,0.00,VWS V14.00,2013-05-03 10:00:00,
2013-05-03 06:30:00,58.3,55.7,30.00,West,271,0.0,1.0,91,0.00,,---,0.00,VWS V14.00,2013-05-03 10:30:00,
2013-05-03 07:00:00,58.1,55.8,30.00,SE,128,0.0,1.0,92,0.00,,---,0.00,VWS V14.00,2013-05-03 11:00:00,
2013-05-03 07:30:00,61.1,56.6,30.00,ESE,113,1.0,2.0,85,0.00,,---,0.00,VWS V14.00,2013-05-03 11:30:00,
2013-05-03 08:00:00,62.8,56.5,30.01,SSE,150,3.0,3.0,80,0.00,,---,0.00,VWS V14.00,2013-05-03 12:00:00,
2013-05-03 08:30:00,64.2,56.8,30.00,SE,134,3.0,6.0,77,0.00,,---,0.00,VWS V14.00,2013-05-03 12:30:00,
2013-05-03 09:00:00,64.6,57.2,30.00,SSE,149,2.0,6.0,77,0.00,,---,0.00,VWS V14.00,2013-05-03 13:00:00,
2013-05-03 09:30:00,66.0,58.2,30.00,ENE,77,1.0,8.0,76,0.00,,---,0.00,VWS V14.00,2013-05-03 13:30:00,
2013-05-03 10:00:00,67.7,58.7,30.00,South,170,2.0,10.0,73,0.00,,---,0.00,VWS V14.00,2013-05-03 14:00:00,
2013-05-03 10:30:00,69.8,59.6,30.00,SE,135,4.0,7.0,70,0.00,,---,0.00,VWS V14.00,2013-05-03 14:30:00,
2013-05-03 11:00:00,71.1,59.2,29.99,SSE,150,1.0,7.0,66,0.00,,---,0.00,VWS V14.00,2013-05-03 15:00:00,
2013-05-03 11:30:00,72.7,61.1,29.99,SE,124,4.0,8.0,67,0.00,,---,0.00,VWS V14.00,2013-05-03 15:30:00,
2013-05-03 12:00:00,73.7,61.2,29.99,SE,145,9.0,10.0,65,0.00,,---,0.00,VWS V14.00,2013-05-03 16:00:00,
2013-05-03 12:30:00,74.3,60.5,29.98,SSE,152,3.0,10.0,62,0.00,,---,0.00,VWS V14.00,2013-05-03 16:30:00,
2013-05-03 13:00:00,75.2,60.4,29.97,SE,134,1.0,11.0,60,0.00,,---,0.00,VWS V14.00,2013-05-03 17:00:00,
2013-05-03 13:30:00,76.1,59.8,29.96,SE,141,4.0,10.0,57,0.00,,---,0.00,VWS V14.00,2013-05-03 17:30:00,
2013-05-03 14:00:00,75.2,58.9,29.96,SSE,154,7.0,10.0,57,0.00,,---,0.00,VWS V14.00,2013-05-03 18:00:00,
2013-05-03 14:30:00,76.0,58.7,29.95,ESE,103,4.0,9.0,55,0.00,,---,0.00,VWS V14.00,2013-05-03 18:30:00,
2013-05-03 15:00:00,76.2,57.8,29.94,ESE,115,3.0,11.0,53,0.00,,---,0.00,VWS V14.00,2013-05-03 19:00:00,
2013-05-03 15:30:00,76.2,58.9,29.94,South,173,3.0,13.0,55,0.00,,---,0.00,VWS V14.00,2013-05-03 19:30:00,
2013-05-03 16:00:00,76.1,57.2,29.93,SE,131,4.0,9.0,52,0.00,,---,0.00,VWS V14.00,2013-05-03 20:00:00,
2013-05-03 16:30:00,76.0,57.1,29.92,SE,127,2.0,9.0,52,0.00,,---,0.00,VWS V14.00,2013-05-03 20:30:00,
2013-05-03 17:00:00,76.3,57.9,29.92,East,94,3.0,13.0,53,0.00,,---,0.00,VWS V14.00,2013-05-03 21:00:00,
2013-05-03 17:30:00,76.3,56.3,29.91,SSE,158,7.0,9.0,50,0.00,,---,0.00,VWS V14.00,2013-05-03 21:30:00,
2013-05-03 18:00:00,75.9,56.0,29.91,ESE,102,2.0,9.0,50,0.00,,---,0.00,VWS V14.00,2013-05-03 22:00:00,
2013-05-03 18:30:00,75.1,55.2,29.91,ESE,103,2.0,8.0,50,0.00,,---,0.00,VWS V14.00,2013-05-03 22:30:00,
2013-05-03 19:00:00,74.8,54.9,29.91,East,85,1.0,10.0,50,0.00,,---,0.00,VWS V14.00,2013-05-03 23:00:00,
2013-05-03 19:30:00,74.0,55.3,29.91,East,87,2.0,8.0,52,0.00,,---,0.00,VWS V14.00,2013-05-03 23:30:00,
2013-05-03 20:00:00,73.0,54.9,29.92,ESE,102,3.0,6.0,53,0.00,,---,0.00,VWS V14.00,2013-05-04 00:00:00,
2013-05-03 20:30:00,72.0,54.5,29.92,ESE,103,4.0,8.0,54,0.00,,---,0.00,VWS V14.00,2013-05-04 00:30:00,
2013-05-03 21:00:00,71.3,54.3,29.93,ESE,120,1.0,5.0,55,0.00,,---,0.00,VWS V14.00,2013-05-04 01:00:00,
2013-05-03 21:30:00,70.6,54.2,29.93,ESE,103,1.0,4.0,56,0.00,,---,0.00,VWS V14.00,2013-05-04 01:30:00,
2013-05-03 22:00:00,69.6,54.7,29.94,East,97,1.0,3.0,59,0.00,,---,0.00,VWS V14.00,2013-05-04 02:00:00,
2013-05-03 22:30:00,68.8,53.9,29.94,East,98,2.0,4.0,59,0.00,,---,0.00,VWS V14.00,2013-05-04 02:30:00,
2013-05-03 23:00:00,68.4,51.1,29.94,ESE,114,3.0,7.0,54,0.00,,---,0.00,VWS V14.00,2013-05-04 03:00:00,
2013-05-03 23:30:00,67.6,49.9,29.94,SE,136,0.0,5.0,53,0.00,,---,0.00,VWS V14.00,2013-05-04 03:30:00,